Doha, Qatar

9:47 PM +03 on May 25, 2017 (GMT +0300)
Doha International

Weather History for OTBD - June, 2014

Change the Weather History Date:

Monday, June 9, 2014

  Actual Average Record
Temperature  
Mean Temperature 100 °F -  
Max Temperature 114 °F 106 °F 116 °F (1998)
Min Temperature 86 °F 83 °F 80 °F (2001)
Cooling Degree Days 35    
Growing Degree Days 50 (Base 50)    
Moisture  
Dew Point 59 °F    
Average Humidity 27    
Maximum Humidity 55    
Minimum Humidity 5    
Precipitation  
Precipitation 0.00 in 0.00 in - ()
Sea Level Pressure  
Sea Level Pressure 29.57 in    
Wind  
Wind Speed 6 mph ()    
Max Wind Speed 15 mph    
Max Gust Speed -    
Visibility 5.9 miles    
Events      
Averages and records for this station are not official NWS values.
T = Trace of Precipitation, MM = Missing Value Source: Averaged Metar Reports

Daily Weather History Graph

Daily Weather History Graph

Search for Another Location

Airport or City:

Trip Planner

Search our weather history database for the weather conditions in past years. The results will help you decide how hot, cold, wet, or windy it might be!

Date:

Astronomy

Jun. 09, 2014 Rise Set
Actual Time 4:42 AM +03 6:23 PM +03
Civil Twilight 4:17 AM +03 6:48 PM +03
Nautical Twilight 3:46 AM +03 7:19 PM +03
Astronomical Twilight 3:13 AM +03 7:52 PM +03
Moon 2:39 PM +03 (6/9) 1:32 AM +03 (6/9)
Length of Visible Light 14h 31m
Length of Day
13h 40m
Waxing Gibbous, 83% of the Moon is Illuminated
Jun 9
Waxing Gibbous
Jun 13
Full
Jun 19
Last Quarter
Jun 27
New
Jul 5
First Quarter

Hourly Weather History & Observations

Time (+03) Temp. Heat Index Dew Point Humidity Pressure Visibility Wind Dir Wind Speed Gust Speed Precip Events Conditions
12:00 AM 90 °F - 67 °F 37% 29.60 in 7 mi WSW 3.5 mph - -  
12:00 AM 89.6 °F 93.4 °F 68.0 °F 49% 29.59 in - WSW 3.5 mph - N/A   Clear
12:30 AM 91.4 °F 94.0 °F 66.2 °F 43% 29.56 in - WSW 3.5 mph - N/A   Clear
1:00 AM 91.4 °F 94.0 °F 66.2 °F 43% 29.56 in - WSW 4.6 mph - N/A   Clear
1:30 AM 93.2 °F 94.1 °F 62.6 °F 36% 29.56 in - West 3.5 mph - N/A   Clear
2:00 AM 93.2 °F 93.3 °F 60.8 °F 34% 29.56 in - WNW 3.5 mph - N/A   Clear
2:30 AM 93.2 °F 91.9 °F 57.2 °F 30% 29.56 in - WNW 3.5 mph - N/A   Clear
3:00 AM 91 °F - 54 °F 19% 29.57 in 7 mi NNW 4.6 mph - -  
3:00 AM 91.4 °F 89.1 °F 53.6 °F 28% 29.56 in - NNW 4.6 mph - N/A   Clear
3:30 AM 89.6 °F 88.9 °F 59.0 °F 36% 29.56 in - North 9.2 mph - N/A   Clear
4:00 AM 87.8 °F 90.4 °F 66.2 °F 49% 29.56 in - North 8.1 mph - N/A   Clear
4:30 AM 89.6 °F 93.4 °F 68.0 °F 49% 29.59 in - NNW 3.5 mph - N/A   Clear
5:00 AM 86.0 °F 89.4 °F 68.0 °F 55% 29.59 in - East 3.5 mph - N/A   Clear
5:30 AM 87.8 °F 91.4 °F 68.0 °F 52% 29.59 in - Variable 2.3 mph - N/A   Clear
6:00 AM 89 °F - 66 °F 37% 29.62 in 6 mi SSW 3.5 mph - -  
6:00 AM 89.6 °F 92.2 °F 66.2 °F 46% 29.62 in - SSW 3.5 mph - N/A   Clear
6:30 AM 91.4 °F 93.2 °F 64.4 °F 41% 29.62 in - SW 3.5 mph - N/A   Clear
7:00 AM 95.0 °F 96.0 °F 62.6 °F 34% 29.62 in - Variable 2.3 mph - N/A   Clear
7:30 AM 96.8 °F 95.8 °F 57.2 °F 27% 29.62 in 5.0 mi NW 3.5 mph - N/A   Unknown
8:00 AM 100.4 °F 98.4 °F 53.6 °F 21% 29.62 in 5.0 mi NW 5.8 mph - N/A   Unknown
9:00 AM 104 °F - 52 °F 11% 29.64 in 6 mi WNW 6.9 mph - -  
9:00 AM 104.0 °F - 51.8 °F 17% 29.62 in - WNW 6.9 mph - N/A   Clear
10:00 AM 107.6 °F - 50.0 °F 15% 29.62 in - WNW 10.4 mph - N/A   Clear
10:30 AM 111.2 °F - 46.4 °F 12% 29.62 in - NW 9.2 mph - N/A   Clear
11:00 AM 113.0 °F - 44.6 °F 10% 29.59 in - NNW 9.2 mph - N/A   Clear
11:30 AM 113.0 °F - 42.8 °F 10% 29.59 in - North 12.7 mph - N/A   Clear
12:00 PM 113 °F - 43 °F 5% 29.60 in 7 mi North 15.0 mph - -  
12:00 PM 113.0 °F - 42.8 °F 10% 29.59 in - North 15.0 mph - N/A   Clear
1:00 PM 113.0 °F - 51.8 °F 13% 29.56 in - NNE 12.7 mph - N/A   Clear
1:30 PM 109.4 °F 112.8 °F 62.6 °F 22% 29.56 in - NNE 11.5 mph - N/A   Clear
2:00 PM 109.4 °F 111.9 °F 60.8 °F 21% 29.56 in - NNE 12.7 mph - N/A   Clear
2:30 PM 105.8 °F 113.2 °F 68.0 °F 30% 29.53 in - North 13.8 mph - N/A   Clear
3:00 PM 108 °F - 67 °F 18% 29.56 in 6 mi North 15.0 mph - -  
3:00 PM 107.6 °F 113.2 °F 66.2 °F 26% 29.53 in - North 15.0 mph - N/A   Clear
3:30 PM 107.6 °F 113.2 °F 66.2 °F 26% 29.53 in - North 15.0 mph - N/A   Clear
4:00 PM 105.8 °F 113.2 °F 68.0 °F 30% 29.53 in - North 13.8 mph - N/A   Clear
4:30 PM 105.8 °F 109.8 °F 64.4 °F 26% 29.53 in - North 11.5 mph - N/A   Clear
5:00 PM 102.2 °F 114.4 °F 73.4 °F 40% 29.53 in - North 10.4 mph - N/A   Clear
5:30 PM 104.0 °F 118.9 °F 75.2 °F 40% 29.53 in - North 10.4 mph - N/A   Clear
6:00 PM 105 °F - 62 °F 17% 29.56 in 6 mi NNW 6.9 mph - -  
6:00 PM 105.8 °F 108.3 °F 62.6 °F 24% 29.53 in - NNW 6.9 mph - N/A   Clear
6:30 PM 105.8 °F 104.9 °F 55.4 °F 19% 29.56 in 5.0 mi NNW 8.1 mph - N/A   Unknown
7:00 PM 104.0 °F 102.9 °F 55.4 °F 20% 29.56 in 5.6 mi NNW 8.1 mph - N/A   Unknown
7:30 PM 105.8 °F - 48.2 °F 14% 29.56 in 5.6 mi NNW 8.1 mph - N/A   Unknown
8:00 PM 102.2 °F 100.4 °F 53.6 °F 20% 29.56 in 5.6 mi NNW 9.2 mph - N/A   Unknown
8:30 PM 100.4 °F 98.8 °F 55.4 °F 22% 29.56 in - NNW 8.1 mph - N/A   Clear
9:00 PM 100 °F - 53 °F 13% 29.59 in 6 mi NNW 6.9 mph - -  
9:00 PM 100.4 °F 98.4 °F 53.6 °F 21% 29.56 in - NNW 6.9 mph - N/A   Clear
10:30 PM 100.4 °F - 48.2 °F 17% 29.56 in - NW 10.4 mph - N/A   Clear
11:00 PM 102.2 °F - 46.4 °F 15% 29.56 in - WNW 8.1 mph - N/A   Clear